This demonstration page uses our WeatherBlox Daily Observations layout. Learn more.

Left ArrowRight Arrow

Hourly Observations for April 5, 2021

Temp ( °F °C ) Dew Point ( °F °C ) Humidity (%) Winds ( mph kmh ) Pressure ( in mb ) Visibility ( mi km ) Precip ( " mm )
12:15 am 00:15 Clear 67 19.3 44 6.8 44 44 S 13 20 29.76 1008 10 16.0934 0 0
12:35 am 00:35 Clear 66 18.7 44 6.9 46 46 S 13 20 29.77 1008 10 16.0934 0 0
12:55 am 00:55 Clear 65 18.3 44 6.9 48 48 S 14 22 29.77 1008 10 16.0934 0 0
1:15 am 01:15 Clear 63 17.2 45 7 51 51 S 13 20 29.77 1008 10 16.0934 0 0
1:35 am 01:35 Clear 62 16.9 45 7 52 52 SSW 12 19 29.77 1008 10 16.0934 0 0
1:55 am 01:55 Clear 62 16.6 45 7 53 53 SSW 9 15 29.78 1008 10 16.0934 0 0
2:15 am 02:15 Clear 62 16.6 45 7.1 54 54 SSW 12 19 29.78 1008 10 16.0934 0 0
2:35 am 02:35 Clear 62 16.5 45 7.2 54 54 SSW 13 20 29.77 1008 10 16.0934 0 0
2:55 am 02:55 Clear 61 16.2 45 7.4 56 56 SSW 10 17 29.77 1008 10 16.0934 0 0
3:15 am 03:15 Clear 60 15.6 46 7.5 59 59 S 12 19 29.76 1008 10 16.0934 0 0
3:35 am 03:35 Clear 59 14.8 46 7.5 62 62 S 10 17 29.77 1008 10 16.0934 0 0
3:55 am 03:55 Clear 58 14.7 46 7.7 63 63 S 9 15 29.76 1008 10 16.0934 0 0
4:15 am 04:15 Clear 58 14.2 46 7.7 65 65 SSW 10 17 29.76 1008 10 16.0934 0 0
4:35 am 04:35 Clear 58 14.4 47 8.2 67 67 S 10 17 29.75 1008 10 16.0934 0 0
4:55 am 04:55 Clear 58 14.2 47 8.3 68 68 S 10 17 29.76 1008 10 16.0934 0 0
5:15 am 05:15 Clear 57 13.9 47 8.5 70 70 S 12 19 29.75 1007 10 16.0934 0 0
5:35 am 05:35 Clear 55 12.8 47 8.5 75 75 S 9 15 29.76 1008 10 16.0934 0 0
5:55 am 05:55 Clear 55 12.7 48 8.7 77 77 S 9 15 29.75 1007 10 16.0934 0 0
6:15 am 06:15 Clear 53 11.6 47 8.5 81 81 SSE 9 15 29.76 1008 10 16.0934 0 0
6:35 am 06:35 Clear 53 11.7 48 9 84 84 S 9 15 29.75 1007 10 16.0934 0 0
6:55 am 06:55 Clear 53 11.5 49 9.4 87 87 S 9 15 29.75 1007 10 16.0934 0 0
7:15 am 07:15 Sunny 53 11.5 49 9.3 86 86 S 10 17 29.75 1007 10 16.0934 0 0
7:35 am 07:35 Sunny 53 11.4 49 9.5 88 88 S 12 19 29.75 1007 10 16.0934 0 0
7:55 am 07:55 Sunny 53 11.8 50 10 89 89 S 12 19 29.75 1007 10 16.0934 0 0
8:15 am 08:15 Sunny 54 12.3 51 10.3 88 88 S 13 20 29.74 1007 10 16.0934 0 0
8:35 am 08:35 Sunny 56 13.1 52 10.9 87 87 S 13 20 29.74 1007 10 16.0934 0 0
8:55 am 08:55 Sunny 57 14 52 11.2 83 83 S 12 19 29.73 1007 10 16.0934 0 0
9:15 am 09:15 Sunny 59 15 53 11.4 79 79 S 14 22 29.71 1006 10 16.0934 0 0
9:35 am 09:35 Sunny 60 15.6 53 11.5 77 77 S 12 19 29.7 1006 10 16.0934 0 0
9:55 am 09:55 Sunny 62 16.5 53 11.4 72 72 S 13 20 29.7 1006 10 16.0934 0 0
10:15 am 10:15 Sunny 64 17.5 53 11.5 68 68 S 12 19 29.68 1005 10 16.0934 0 0
10:35 am 10:35 Sunny 65 18.2 53 11.6 66 66 SSW 12 19 29.67 1005 10 16.0934 0 0
10:55 am 10:55 Sunny 66 19 53 11.4 62 62 S 16 26 29.66 1004 10 16.0934 0 0
11:15 am 11:15 Sunny 68 20 53 11.5 58 58 SSW 12 19 29.64 1004 10 16.0934 0 0
11:35 am 11:35 Sunny 69 20.7 52 11.2 55 55 SSW 13 20 29.63 1003 10 16.0934 0 0
11:55 am 11:55 Sunny 70 21.3 52 11 52 52 S 12 19 29.63 1003 10 16.0934 0 0
12:15 pm 12:15 Sunny 72 22 52 10.9 49 49 S 10 17 29.6 1002 10 16.0934 0 0
12:35 pm 12:35 Sunny 73 22.7 51 10.6 46 46 S 10 17 29.59 1002 10 16.0934 0 0
12:55 pm 12:55 Sunny 74 23.4 51 10.6 45 45 S 15 24 29.57 1001 10 16.0934 0 0
1:15 pm 13:15 Sunny 75 23.9 50 10 41 41 SSE 16 26 29.57 1001 10 16.0934 0 0
1:35 pm 13:35 Sunny 76 24.4 49 9.6 39 39 S 16 26 29.55 1001 10 16.0934 0 0
1:55 pm 13:55 Sunny 76 24.7 49 9.7 39 39 S 15 24 29.54 1000 10 16.0934 0 0
2:15 pm 14:15 Sunny 78 25.5 49 9.4 36 36 S 14 22 29.53 1000 10 16.0934 0 0
2:35 pm 14:35 Sunny 78 25.7 49 9.6 36 36 S 15 24 29.52 1000 10 16.0934 0 0
2:55 pm 14:55 Sunny 79 26.1 49 9.4 35 35 S 14 22 29.51 999 10 16.0934 0 0
3:15 pm 15:15 Sunny 81 27 49 9.6 34 34 SSW 15 24 29.49 999 10 16.0934 0 0
3:35 pm 15:35 Sunny 81 27.3 49 9.3 32 32 S 14 22 29.48 998 10 16.0934 0 0
3:55 pm 15:55 Sunny 81 27 48 9 32 32 S 15 24 29.48 998 10 16.0934 0 0
4:15 pm 16:15 Sunny 81 27.2 48 9.1 32 32 S 13 20 29.47 998 10 16.0934 0 0
4:35 pm 16:35 Sunny 81 27.3 47 8.6 31 31 S 15 24 29.46 998 10 16.0934 0 0
4:55 pm 16:55 Sunny 81 27 48 8.7 32 32 S 15 24 29.46 998 10 16.0934 0 0
5:15 pm 17:15 Sunny 81 27.1 48 9.1 32 32 SSE 15 24 29.45 997 10 16.0934 0 0
5:35 pm 17:35 Sunny 81 27.3 48 9 32 32 S 12 19 29.45 997 10 16.0934 0 0
5:55 pm 17:55 Sunny 81 27.3 48 9 32 32 S 14 22 29.45 997 10 16.0934 0 0
6:15 pm 18:15 Sunny 81 27 49 9.2 33 33 S 13 20 29.44 997 10 16.0934 0 0
6:35 pm 18:35 Sunny 80 26.6 48 9.1 33 33 S 12 19 29.45 997 10 16.0934 0 0
6:55 pm 18:55 Sunny 80 26.4 50 9.9 35 35 S 8 13 29.45 997 10 16.0934 0 0
7:15 pm 19:15 Sunny 79 26 49 9.7 36 36 S 8 13 29.45 997 10 16.0934 0 0
7:35 pm 19:35 Sunny 77 25.1 49 9.5 37 37 S 9 15 29.46 998 10 16.0934 0 0
7:55 pm 19:55 Sunny 75 23.8 50 10 42 42 S 8 13 29.46 998 10 16.0934 0 0
8:15 pm 20:15 Clear 73 23 50 10 44 44 SSE 8 13 29.46 998 10 16.0934 0 0
8:35 pm 20:35 Clear 70 20.9 50 9.9 50 50 SSE 7 11 29.48 998 10 16.0934 0 0
8:55 pm 20:55 Clear 67 19.3 50 10.2 56 56 SSE 8 13 29.5 999 10 16.0934 0 0
9:15 pm 21:15 Clear 68 20 51 10.5 54 54 SSE 8 13 29.5 999 10 16.0934 0 0
9:35 pm 21:35 Clear 67 19.6 51 10.3 55 55 SSE 9 15 29.51 999 10 16.0934 0 0
9:55 pm 21:55 Clear 69 20.7 50 10.2 51 51 S 13 20 29.5 999 10 16.0934 0 0
10:15 pm 22:15 Clear 69 20.4 50 10.2 52 52 S 12 19 29.52 999 10 16.0934 0 0
10:35 pm 22:35 Clear 68 20 51 10.3 54 54 S 13 20 29.52 1000 10 16.0934 0 0
10:55 pm 22:55 Clear 68 20 51 10.5 54 54 S 15 24 29.51 999 10 16.0934 0 0
11:15 pm 23:15 Clear 69 20.5 51 10.5 53 53 S 16 26 29.5 999 10 16.0934 0 0
11:35 pm 23:35 Clear 68 20 51 10.3 54 54 S 15 24 29.51 999 10 16.0934 0 0
11:55 pm 23:55 Clear 67 19.5 51 10.3 55 55 S 13 20 29.51 999 10 16.0934 0 0

Powered by AerisWeather